This demonstration page uses our WeatherBlox Daily Observations layout. Learn more.

Left ArrowRight Arrow

47.50024, -111.30081

Hourly Observations for May 23, 2017

Temp ( °F °C ) Dew Point ( °F °C ) Humidity (%) Winds ( mph kmh ) Pressure ( in mb ) Visibility ( mi km ) Precip ( " mm )
12:53 am 00:53 Clear 51 10.6 41 5 69 69 ESE 6 9 30.16 1022 10 16 0.00 0.00
1:53 am 01:53 Clear 46 7.8 40 4.4 79 79 SW 5 7 30.16 1021 10 16 0.00 0.00
2:53 am 02:53 Clear 48 8.9 39 3.9 71 71 S 5 7 30.15 1021 10 16 0.00 0.00
3:53 am 03:53 Clear 49 9.4 38 3.3 66 66 SSW 6 9 30.14 1021 10 16 0.00 0.00
4:53 am 04:53 Clear 42 5.6 37 2.8 82 82 SSW 7 11 30.14 1021 10 16 0.00 0.00
5:53 am 05:53 Sunny 46 7.8 37 2.8 71 71 Calm 30.11 1020 10 16 0.00 0.00
6:53 am 06:53 Sunny 51 10.6 44 6.7 77 77 Calm 30.09 1019 10 16 0.00 0.00
7:53 am 07:53 Sunny 56 13.3 42 5.6 60 60 SSW 9 15 30.06 1018 10 16 0.00 0.00
8:53 am 08:53 Sunny 61 16.1 41 5 48 48 SSW 12 19 30.05 1018 10 16 0.00 0.00
9:53 am 09:53 Sunny 66 18.9 42 5.6 42 42 SSW 14 22 30.03 1017 10 16 0.00 0.00
10:53 am 10:53 Sunny 70 21.1 44 6.7 39 39 SSW 13 20 29.99 1016 10 16 0.00 0.00
11:53 am 11:53 Sunny 74 23.3 41 5 31 31 SW 10 17 29.96 1015 10 16 0.00 0.00
12:53 pm 12:53 Sunny 76 24.4 42 5.6 30 30 SW 10 17 29.93 1013 10 16 0.00 0.00
1:53 pm 13:53 Sunny 76 24.4 40 4.4 27 27 WSW 12 19 29.91 1013 10 16 0.00 0.00
2:53 pm 14:53 Sunny 78 25.6 42 5.6 28 28 SW 14 22 29.87 1011 10 16 0.00 0.00
3:53 pm 15:53 Sunny 79 26.1 44 6.7 29 29 SW 12 19 29.83 1010 10 16 0.00 0.00
4:53 pm 16:53 Sunny 79 26.1 43 6.1 28 28 SSW 15 24 29.80 1009 10 16 0.00 0.00
5:53 pm 17:53 Sunny 80 26.7 46 7.8 30 30 SSW 13 20 29.75 1008 10 16 0.00 0.00
6:53 pm 18:53 Sunny 78 25.6 45 7.2 31 31 SW 9 15 29.71 1006 10 16 0.00 0.00
7:53 pm 19:53 Sunny 70 21.1 49 9.4 47 47 SSW 8 13 29.68 1005 10 16 0.00 0.00
8:53 pm 20:53 Sunny 65 18.3 47 8.3 52 52 SW 12 19 29.65 1004 10 16 0.00 0.00
9:53 pm 21:53 Clear 65 18.3 45 7.2 49 49 SSW 12 19 29.61 1003 10 16 0.00 0.00
10:53 pm 22:53 Clear 61 16.1 45 7.2 56 56 SSW 9 15 29.59 1002 10 16 0.00 0.00
11:53 pm 23:53 Clear 66 18.9 38 3.3 36 36 SW 14 22 29.54 1000 10 16 0.00 0.00

Powered by AerisWeather